Flag for Canada Weather past 2 weeks in Medicine Hat, Alberta, Canada

Now
55 °F

Passing clouds.


Feels Like: 53 °F
Forecast: 36 / 69 °F
Wind: 9 mph from North

Location: Medicine Hat

Current Time: May 28, 2015 at 9:01:14 PM

Latest Report: May 28, 2015 at 8:00 PM


Visibility: 30 mi

Pressure: 30.28 "Hg

Humidity: 51%

Dew point: 37 °F

Location of Medicine HatLocation

Historic Weather in Medicine Hat — Graph

°F

Medicine Hat temperature yesterday

Maximum temperature yesterday: 75 °F (at 2:00 PM)
Minimum temperature yesterday: 54 °F (at 6:00 AM)
Average temperature yesterday: 62 °F

Past Weeks' High & Low Weather Summary

 TemperatureHumidityPressure
High79 °F (May 22, 5:00 PM)100% (May 16, 2:00 AM)30.49 "Hg (May 16, 2:00 AM)
Low27 °F (May 18, 4:00 AM)13% (May 21, 4:00 PM)29.79 "Hg (May 25, 9:00 PM)
Average56 °F51%30.07 "Hg
* Reported May 13 8:00 PM — May 28 8:00 PM, Medicine Hat, Weather by CustomWeather, © 2015

Note: Actual official high and low records may vary slightly from our data, if they occured in-between our weather recording intervals... More about our weather records

Advertising

Medicine Hat weather history for previous 24 hours

 ConditionsComfort  
Time TempWeatherWind HumidityBarometerVisibility
8:00 PM
Thu, May 28
55 °FPassing clouds.9 mph51%30.28 "Hg30 mi
7:00 PM57 °FScattered clouds.13 mph44%30.27 "Hg30 mi
6:00 PM57 °FScattered clouds.10 mph51%30.27 "Hg30 mi
5:00 PM54 °FPartly sunny.12 mph63%30.28 "Hg30 mi
4:00 PM50 °FOvercast.16 mph76%30.28 "Hg25 mi
3:00 PM50 °FOvercast.14 mph82%30.27 "Hg30 mi
2:00 PM50 °FSprinkles. Overcast.20 mph88%30.25 "Hg10 mi
1:00 PM50 °FSprinkles. Cloudy.16 mph94%30.22 "Hg10 mi
12:00 PM50 °FSprinkles. Mostly cloudy.17 mph94%30.18 "Hg8 mi
11:00 AM55 °FOvercast.22 mph82%30.11 "Hg60 mi
10:00 AM61 °FMostly cloudy.13 mph77%30.08 "Hg15 mi
9:00 AM57 °FMostly cloudy.9 mph82%30.05 "Hg20 mi
8:00 AM54 °FMostly cloudy.7 mph94%30.03 "Hg15 mi
7:00 AM52 °FOvercast.5 mph88%30.00 "Hg12 mi
6:00 AM48 °FClear.2 mph94%29.99 "Hg7 mi
5:00 AM48 °FPassing clouds.No wind94%29.98 "Hg8 mi
4:00 AM46 °FClear.3 mph100%29.97 "Hg9 mi
3:00 AM50 °FClear.No wind94%29.94 "Hg9 mi
2:00 AM48 °FPassing clouds.3 mph94%29.93 "Hg9 mi
1:00 AM52 °FClear.5 mph88%29.93 "Hg9 mi
12:00 AM55 °FPassing clouds.6 mph82%29.94 "Hg9 mi
11:00 PM
Wed, May 27
57 °FPassing clouds.6 mph77%29.94 "Hg9 mi
10:00 PM59 °FScattered clouds.10 mph72%29.94 "Hg9 mi
9:00 PM61 °FPartly sunny.12 mph72%29.93 "Hg30 mi
Weather by CustomWeather, © 2015

See weather overviewHow to use our weather pages